TimeCST,TemperatureF,Dew PointF,Humidity,Sea Level PressureIn,VisibilityMPH,Wind Direction,Wind SpeedMPH,Gust SpeedMPH,PrecipitationIn,Events,Conditions,WindDirDegrees,DateUTC
12:52 AM,36.0,34.0,93,29.86,0.5,North,17.3,-,N/A,Fog,Fog,360,2013-12-22 06:52:00
12:59 AM,35.6,33.8,93,29.87,2.0,North,13.8,-,N/A,,Overcast,350,2013-12-22 06:59:00
1:17 AM,35.6,33.8,93,29.87,4.0,North,13.8,-,N/A,,Overcast,360,2013-12-22 07:17:00
1:52 AM,34.0,33.1,96,29.88,3.0,North,18.4,21.9,0.00,,Overcast,360,2013-12-22 07:52:00
2:23 AM,33.8,30.2,87,29.91,10.0,NNW,12.7,-,N/A,,Overcast,340,2013-12-22 08:23:00
2:52 AM,35.1,30.9,85,29.93,10.0,North,10.4,-,N/A,,Overcast,350,2013-12-22 08:52:00
3:11 AM,33.8,30.2,87,29.95,10.0,NNW,10.4,-,N/A,,Overcast,340,2013-12-22 09:11:00
3:52 AM,34.0,28.0,79,29.94,10.0,North,13.8,-,N/A,,Overcast,350,2013-12-22 09:52:00
4:52 AM,32.0,26.1,79,29.97,10.0,NNW,9.2,-,N/A,,Mostly Cloudy,340,2013-12-22 10:52:00
5:09 AM,32.0,26.6,80,29.98,10.0,NNW,8.1,-,N/A,,Partly Cloudy,340,2013-12-22 11:09:00
5:52 AM,30.9,25.0,79,30.01,10.0,NNW,10.4,-,N/A,,Clear,330,2013-12-22 11:52:00
6:52 AM,30.0,24.1,79,30.06,10.0,NNW,8.1,-,N/A,,Clear,330,2013-12-22 12:52:00
7:52 AM,30.0,24.1,79,30.10,10.0,NNW,8.1,-,N/A,,Scattered Clouds,340,2013-12-22 13:52:00
8:52 AM,33.1,24.1,70,30.15,10.0,NNW,15.0,-,N/A,,Overcast,340,2013-12-22 14:52:00
9:52 AM,35.1,23.0,61,30.18,10.0,NNW,12.7,23.0,N/A,,Scattered Clouds,340,2013-12-22 15:52:00
10:52 AM,37.9,24.1,57,30.20,10.0,NNW,16.1,23.0,N/A,,Clear,340,2013-12-22 16:52:00
11:52 AM,39.9,24.1,53,30.22,10.0,North,15.0,-,N/A,,Clear,350,2013-12-22 17:52:00
12:52 PM,41.0,24.1,51,30.21,10.0,North,16.1,21.9,N/A,,Clear,350,2013-12-22 18:52:00
1:52 PM,42.1,24.1,49,30.21,10.0,NNW,12.7,-,N/A,,Clear,340,2013-12-22 19:52:00
2:52 PM,43.0,24.1,47,30.21,10.0,North,12.7,20.7,N/A,,Clear,350,2013-12-22 20:52:00
3:52 PM,43.0,23.0,45,30.24,10.0,North,13.8,-,N/A,,Clear,350,2013-12-22 21:52:00
4:52 PM,41.0,23.0,49,30.27,10.0,North,10.4,-,N/A,,Clear,10,2013-12-22 22:52:00
5:52 PM,37.9,23.0,55,30.29,10.0,NNE,4.6,-,N/A,,Clear,20,2013-12-22 23:52:00
6:52 PM,36.0,25.0,64,30.32,10.0,NE,4.6,-,N/A,,Clear,40,2013-12-23 00:52:00
7:52 PM,35.1,24.1,64,30.34,10.0,NE,3.5,-,N/A,,Clear,50,2013-12-23 01:52:00
8:52 PM,30.9,25.0,79,30.36,10.0,ESE,3.5,-,N/A,,Clear,110,2013-12-23 02:52:00
9:52 PM,30.0,24.1,79,30.38,10.0,Calm,Calm,-,N/A,,Clear,0,2013-12-23 03:52:00
10:52 PM,30.9,24.1,76,30.37,10.0,East,4.6,-,N/A,,Clear,100,2013-12-23 04:52:00
11:52 PM,28.9,23.0,78,30.37,10.0,SE,4.6,-,N/A,,Clear,140,2013-12-23 05:52:00